Weather History for KNCA - June, 2013

Change the Weather History Date:

Friday, June 14, 2013

  Actual Average Record
Temperature  
Mean Temperature 74 °F -  
Max Temperature 81 °F 83 °F 93 °F (2000)
Min Temperature 68 °F 66 °F 60 °F (2007)
Cooling Degree Days 9    
Growing Degree Days 24 (Base 50)    
Moisture  
Dew Point 61 °F    
Average Humidity 69    
Maximum Humidity 100    
Minimum Humidity 42    
Precipitation  
Precipitation 0.15 in - - ()
Sea Level Pressure  
Sea Level Pressure 29.86 in    
Wind  
Wind Speed 8 mph (NNW)    
Max Wind Speed 17 mph    
Max Gust Speed 23 mph    
Visibility 7 miles    
Events Rain , Thunderstorm    
Averages and records for this station are not official NWS values.
T = Trace of Precipitation, MM = Missing Value Source: NWS Daily Summary

Daily Weather History Graph

Daily Weather History Graph

Search for Another Location

Airport or City:

Trip Planner

Search our weather history database for the weather conditions in past years. The results will help you decide how hot, cold, wet, or windy it might be!

Date:

Astronomy

Jun. 14, 2013 Rise Set
Actual Time 5:56 AM EDT 8:24 PM EDT
Civil Twilight 5:26 AM EDT 8:53 PM EDT
Nautical Twilight 4:50 AM EDT 9:30 PM EDT
Astronomical Twilight 4:10 AM EDT 10:10 PM EDT
Moon 11:17 AM EDT (6/14) No Moon Set
Length of Visible Light 15h 27m
Length of Day
14h 28m
Waxing Crescent, 30% of the Moon is Illuminated
Jun 14
Waxing Crescent
Jun 16
First Quarter
Jun 23
Full
Jun 30
Last Quarter
Jul 8
New

Hourly Weather History & Observations

Time (EDT) Temp. Heat Index Dew Point Humidity Pressure Visibility Wind Dir Wind Speed Gust Speed Precip Events Conditions
12:04 AM 69.8 °F - 68.0 °F 94% 29.74 in 7.0 mi Calm Calm - 0.01 in Rain , Thunderstorm Light Thunderstorms and Rain
12:36 AM 69.8 °F - 69.8 °F 100% 29.74 in 2.0 mi WNW 3.5 mph - 0.05 in Rain , Thunderstorm Thunderstorms and Rain
12:48 AM 69.8 °F - 69.8 °F 100% 29.72 in 3.0 mi North 9.2 mph - 0.14 in Rain , Thunderstorm Thunderstorms and Rain
12:56 AM 70.0 °F - 69.1 °F 97% 29.73 in 7.0 mi NNW 11.5 mph - 0.14 in Rain , Thunderstorm Light Thunderstorms and Rain
1:56 AM 70.0 °F - 69.1 °F 97% 29.73 in 8.0 mi West 5.8 mph - 0.01 in Thunderstorm Thunderstorm
2:16 AM 69.8 °F - 69.8 °F 100% 29.72 in 2.5 mi WNW 9.2 mph - N/A Thunderstorm Partly Cloudy
2:25 AM 69.8 °F - 69.8 °F 100% 29.72 in 10.0 mi West 8.1 mph - N/A Thunderstorm Thunderstorm
2:34 AM 69.8 °F - 69.8 °F 100% 29.72 in 10.0 mi West 6.9 mph - N/A   Scattered Clouds
2:49 AM 69.8 °F - 69.8 °F 100% 29.72 in 2.0 mi West 6.9 mph - N/A   Scattered Clouds
2:56 AM 70.0 °F - 69.1 °F 97% 29.73 in 10.0 mi West 6.9 mph - N/A   Scattered Clouds
3:17 AM 69.8 °F - 68.0 °F 94% 29.72 in 2.5 mi WNW 9.2 mph - N/A   Clear
3:25 AM 69.8 °F - 68.0 °F 94% 29.72 in 10.0 mi WNW 6.9 mph - N/A   Clear
3:56 AM 71.1 °F - 68.0 °F 90% 29.73 in 10.0 mi NW 6.9 mph - N/A   Clear
4:56 AM 70.0 °F - 66.0 °F 87% 29.74 in 10.0 mi NW 9.2 mph - N/A   Scattered Clouds
5:56 AM 68.0 °F - 64.9 °F 90% 29.76 in 10.0 mi NW 6.9 mph - N/A   Clear
6:56 AM 68.0 °F - 64.0 °F 87% 29.78 in 10.0 mi WNW 9.2 mph - N/A   Clear
7:56 AM 70.0 °F - 62.1 °F 76% 29.80 in 10.0 mi NW 9.2 mph - N/A   Scattered Clouds
8:56 AM 73.0 °F - 60.1 °F 64% 29.81 in 10.0 mi NNW 13.8 mph 19.6 mph N/A   Clear
9:56 AM 75.0 °F - 59.0 °F 57% 29.83 in 10.0 mi NNW 16.1 mph 21.9 mph N/A   Clear
10:56 AM 77.0 °F - 57.9 °F 52% 29.84 in 10.0 mi NW 11.5 mph 20.7 mph N/A   Clear
11:56 AM 78.1 °F - 57.0 °F 48% 29.85 in 10.0 mi NNW 10.4 mph 21.9 mph N/A   Clear
12:56 PM 80.1 °F 80.6 °F 57.9 °F 47% 29.86 in 10.0 mi North 15.0 mph 20.7 mph N/A   Partly Cloudy
1:56 PM 80.1 °F 80.2 °F 55.9 °F 43% 29.88 in 10.0 mi North 15.0 mph 21.9 mph N/A   Scattered Clouds
2:56 PM 80.1 °F 80.2 °F 55.9 °F 43% 29.89 in 10.0 mi NNW 17.3 mph 21.9 mph N/A   Scattered Clouds
3:56 PM 80.1 °F 80.1 °F 55.0 °F 42% 29.91 in 10.0 mi North 15.0 mph 23.0 mph N/A   Partly Cloudy
4:56 PM 79.0 °F - 55.0 °F 44% 29.92 in 10.0 mi North 11.5 mph 20.7 mph N/A   Mostly Cloudy
5:56 PM 79.0 °F - 54.0 °F 42% 29.92 in 10.0 mi North 16.1 mph 20.7 mph N/A   Scattered Clouds
7:01 PM 78.8 °F - 55.4 °F 44% 29.93 in 1.8 mi North 13.8 mph 18.4 mph N/A   Haze
7:04 PM 78.8 °F - 55.4 °F 44% 29.93 in 0.8 mi NNE 12.7 mph 18.4 mph N/A   Haze
7:17 PM 77.0 °F - 53.6 °F 44% 29.93 in 2.5 mi North 13.8 mph 18.4 mph N/A   Haze
7:24 PM 77.0 °F - 53.6 °F 44% 29.93 in 10.0 mi North 11.5 mph - N/A   Partly Cloudy
7:34 PM 77.0 °F - 55.4 °F 47% 29.94 in 0.8 mi North 10.4 mph - N/A   Haze
7:43 PM 75.2 °F - 55.4 °F 50% 29.94 in 0.2 mi NNE 11.5 mph - N/A   Haze
7:56 PM 75.0 °F - 55.0 °F 50% 29.96 in 1.0 mi NNE 8.1 mph - N/A   Haze
8:05 PM 75.2 °F - 55.4 °F 50% 29.95 in 5.0 mi NNE 9.2 mph - N/A   Haze
8:56 PM 71.1 °F - 57.0 °F 61% 29.97 in 10.0 mi NNE 5.8 mph - N/A   Clear
9:40 PM 71.6 °F - 57.2 °F 60% 29.98 in 2.5 mi North 4.6 mph - N/A   Haze
9:47 PM 71.6 °F - 57.2 °F 60% 29.99 in 10.0 mi North 5.8 mph - N/A   Clear
9:56 PM 71.1 °F - 57.0 °F 61% 30.00 in 10.0 mi NNE 6.9 mph - N/A   Clear
10:06 PM 69.8 °F - 57.2 °F 64% 29.99 in 1.8 mi NNE 6.9 mph - N/A   Haze
10:16 PM 69.8 °F - 57.2 °F 64% 30.00 in 5.0 mi NNE 5.8 mph - N/A   Haze
10:37 PM 69.8 °F - 57.2 °F 64% 30.01 in 1.5 mi NE 4.6 mph - N/A   Haze
10:47 PM 69.8 °F - 57.2 °F 64% 30.01 in 5.0 mi NE 8.1 mph - N/A   Haze
10:56 PM 69.1 °F - 57.9 °F 68% 30.02 in 10.0 mi NE 6.9 mph - N/A   Clear
11:56 PM 69.1 °F - 57.0 °F 65% 30.04 in 10.0 mi East 9.2 mph - N/A   Clear